| time (UTC) | temp F | wind direction | speed MPH | gust MPH | rain 1hr in | rain 24hr in | rain mn in | humidity % | barometer mb |
| 20260904203837 | 52 | 180 | 3.0 | 5.0 | 0.00 | 0.00 | 0.00 | 69 | 1021.3 |
| 20260904203335 | 52 | 135 | 2.0 | 2.0 | 0.00 | 0.00 | 0.00 | 67 | 1021.0 |
| 20260904202833 | 52 | 135 | 1.0 | 1.0 | 0.00 | 0.00 | 0.00 | 65 | 1020.9 |
| 20260904202331 | 52 | 315 | 0.0 | 0.0 | 0.00 | 0.00 | 0.00 | 64 | 1020.8 |
| 20260904201828 | 52 | 315 | 0.0 | 0.0 | 0.00 | 0.00 | 0.00 | 64 | 1020.7 |
| 20260904200824 | 52 | 315 | 0.0 | 0.0 | 0.00 | 0.00 | 0.00 | 64 | 1020.6 |
| 20260904200321 | 53 | 315 | 0.0 | 0.0 | 0.00 | 0.00 | 0.00 | 63 | 1020.5 |
| 20260904195819 | 53 | 225 | 0.0 | 0.0 | 0.00 | 0.00 | 0.00 | 62 | 1020.4 |
| 20260904195316 | 53 | 225 | 0.0 | 0.0 | 0.00 | 0.00 | 0.00 | 62 | 1020.4 |
| 20260904194814 | 53 | 225 | 0.0 | 0.0 | 0.00 | 0.00 | 0.00 | 62 | 1020.4 |
| 20260904194312 | 53 | 225 | 0.0 | 0.0 | 0.00 | 0.00 | 0.00 | 62 | 1020.4 |
| 20260904193810 | 53 | 225 | 0.0 | 0.0 | 0.00 | 0.00 | 0.00 | 61 | 1020.3 |
| 20260904193308 | 54 | 225 | 0.0 | 0.0 | 0.00 | 0.00 | 0.00 | 61 | 1020.3 |
| 20260904192805 | 54 | 225 | 0.0 | 0.0 | 0.00 | 0.00 | 0.00 | 61 | 1020.3 |
| 20260904192306 | 54 | 225 | 0.0 | 0.0 | 0.00 | 0.00 | 0.00 | 61 | 1020.3 |
| 20260904191801 | 54 | 225 | 0.0 | 1.0 | 0.00 | 0.00 | 0.00 | 61 | 1020.3 |
| 20260904191258 | 54 | 225 | 0.0 | 1.0 | 0.00 | 0.00 | 0.00 | 62 | 1020.3 |
| 20260904190756 | 54 | 225 | 0.0 | 1.0 | 0.00 | 0.00 | 0.00 | 62 | 1020.2 |
| 20260904190253 | 54 | 202 | 1.0 | 1.0 | 0.00 | 0.00 | 0.00 | 62 | 1020.2 |
| 20260904185751 | 54 | 225 | 1.0 | 1.0 | 0.00 | 0.00 | 0.00 | 61 | 1020.3 |
| 20260904185249 | 54 | 225 | 1.0 | 1.0 | 0.00 | 0.00 | 0.00 | 58 | 1020.1 |
| 20260904184747 | 55 | 270 | 0.0 | 1.0 | 0.00 | 0.00 | 0.00 | 59 | 1020.1 |
| 20260904184245 | 55 | 225 | 0.0 | 0.0 | 0.00 | 0.00 | 0.00 | 57 | 1019.9 |
| 20260904183742 | 55 | 225 | 0.0 | 0.0 | 0.00 | 0.00 | 0.00 | 57 | 1019.8 |
| 20260904183240 | 55 | 225 | 0.0 | 0.0 | 0.00 | 0.00 | 0.00 | 57 | 1019.8 |
| 20260904182738 | 56 | 225 | 0.0 | 0.0 | 0.00 | 0.00 | 0.00 | 56 | 1019.9 |
| 20260904182240 | 56 | 225 | 0.0 | 0.0 | 0.00 | 0.00 | 0.00 | 56 | 1019.8 |
| 20260904181735 | 56 | 225 | 0.0 | 0.0 | 0.00 | 0.00 | 0.00 | 55 | 1019.7 |
| 20260904181231 | 57 | 225 | 0.0 | 0.0 | 0.00 | 0.00 | 0.00 | 55 | 1019.7 |
| 20260904180728 | 57 | 225 | 0.0 | 0.0 | 0.00 | 0.00 | 0.00 | 55 | 1019.7 |
| 20260904180226 | 58 | 225 | 0.0 | 1.0 | 0.00 | 0.00 | 0.00 | 55 | 1019.5 |
| 20260904175724 | 58 | 270 | 0.0 | 1.0 | 0.00 | 0.00 | 0.00 | 55 | 1019.6 |
| 20260904175222 | 58 | 180 | 1.0 | 2.0 | 0.00 | 0.00 | 0.00 | 56 | 1019.5 |
| 20260904174720 | 59 | 180 | 1.0 | 1.0 | 0.00 | 0.00 | 0.00 | 55 | 1019.6 |
| 20260904174221 | 59 | 180 | 1.0 | 2.0 | 0.00 | 0.00 | 0.00 | 56 | 1019.6 |
| 20260904173715 | 59 | 180 | 1.0 | 2.0 | 0.00 | 0.00 | 0.00 | 56 | 1019.6 |
| 20260904173212 | 59 | 180 | 1.0 | 3.0 | 0.00 | 0.00 | 0.00 | 56 | 1019.6 |
| 20260904172710 | 59 | 180 | 3.0 | 3.0 | 0.00 | 0.00 | 0.00 | 56 | 1019.7 |
| 20260904172208 | 59 | 180 | 3.0 | 4.0 | 0.00 | 0.00 | 0.00 | 56 | 1019.7 |
| 20260904171705 | 59 | 191 | 3.0 | 3.0 | 0.00 | 0.00 | 0.00 | 56 | 1019.7 |
| 20260904171203 | 59 | 180 | 3.0 | 4.0 | 0.00 | 0.00 | 0.00 | 55 | 1019.6 |
| 20260904170701 | 59 | 180 | 3.0 | 4.0 | 0.00 | 0.00 | 0.00 | 56 | 1019.6 |
| 20260904170159 | 60 | 180 | 3.0 | 4.0 | 0.00 | 0.00 | 0.00 | 56 | 1019.7 |
| 20260904165657 | 60 | 180 | 3.0 | 4.0 | 0.00 | 0.00 | 0.00 | 56 | 1019.7 |
| 20260904165154 | 60 | 191 | 3.0 | 4.0 | 0.00 | 0.00 | 0.00 | 56 | 1019.8 |
| 20260904164652 | 60 | 180 | 3.0 | 3.0 | 0.00 | 0.00 | 0.00 | 56 | 1019.8 |
| 20260904164150 | 60 | 180 | 3.0 | 3.0 | 0.00 | 0.00 | 0.00 | 56 | 1019.8 |
| 20260904163647 | 59 | 180 | 2.0 | 2.0 | 0.00 | 0.00 | 0.00 | 55 | 1019.6 |
| 20260904163145 | 59 | 180 | 2.0 | 3.0 | 0.00 | 0.00 | 0.00 | 55 | 1019.7 |
| 20260904162643 | 59 | 180 | 2.0 | 3.0 | 0.00 | 0.00 | 0.00 | 54 | 1019.6 |
| 20260904162140 | 59 | 225 | 1.0 | 3.0 | 0.00 | 0.00 | 0.00 | 53 | 1019.6 |
| 20260904161638 | 60 | 168 | 2.0 | 2.0 | 0.00 | 0.00 | 0.00 | 51 | 1019.6 |
| 20260904161136 | 60 | 180 | 2.0 | 2.0 | 0.00 | 0.00 | 0.00 | 52 | 1019.6 |
| 20260904160634 | 60 | 180 | 1.0 | 2.0 | 0.00 | 0.00 | 0.00 | 52 | 1019.6 |
| 20260904160132 | 60 | 180 | 2.0 | 2.0 | 0.00 | 0.00 | 0.00 | 51 | 1019.6 |
| 20260904155629 | 60 | 180 | 1.0 | 2.0 | 0.00 | 0.00 | 0.00 | 50 | 1019.7 |
| 20260904155127 | 60 | 180 | 1.0 | 2.0 | 0.00 | 0.00 | 0.00 | 49 | 1019.5 |
| 20260904154624 | 61 | 180 | 0.0 | 1.0 | 0.00 | 0.00 | 0.00 | 49 | 1019.7 |
| 20260904154122 | 61 | 180 | 0.0 | 1.0 | 0.00 | 0.00 | 0.00 | 49 | 1019.8 |
| 20260904153621 | 61 | 225 | 0.0 | 1.0 | 0.00 | 0.00 | 0.00 | 48 | 1019.6 |
| 20260904153117 | 62 | 45 | 0.0 | 2.0 | 0.00 | 0.00 | 0.00 | 48 | 1019.8 |
| 20260904152615 | 62 | 180 | 0.0 | 0.0 | 0.00 | 0.00 | 0.00 | 48 | 1019.7 |
| 20260904152113 | 62 | 180 | 0.0 | 0.0 | 0.00 | 0.00 | 0.00 | 47 | 1019.8 |
| 20260904151611 | 63 | 180 | 0.0 | 1.0 | 0.00 | 0.00 | 0.00 | 47 | 1019.9 |
| 20260904151109 | 63 | 225 | 0.0 | 0.0 | 0.00 | 0.00 | 0.00 | 48 | 1019.9 |
| 20260904150607 | 63 | 225 | 0.0 | 0.0 | 0.00 | 0.00 | 0.00 | 48 | 1019.9 |
| 20260904150104 | 63 | 225 | 1.0 | 1.0 | 0.00 | 0.00 | 0.00 | 48 | 1020.0 |
| 20260904145601 | 63 | 180 | 1.0 | 1.0 | 0.00 | 0.00 | 0.00 | 48 | 1020.0 |
| 20260904145059 | 63 | 180 | 1.0 | 1.0 | 0.00 | 0.00 | 0.00 | 47 | 1019.9 |
| 20260904144557 | 63 | 180 | 1.0 | 1.0 | 0.00 | 0.00 | 0.00 | 47 | 1020.0 |
| 20260904144055 | 63 | 180 | 0.0 | 1.0 | 0.00 | 0.00 | 0.00 | 47 | 1020.0 |
| 20260904143552 | 63 | 180 | 1.0 | 1.0 | 0.00 | 0.00 | 0.00 | 47 | 1020.1 |
| 20260904143050 | 63 | 180 | 0.0 | 0.0 | 0.00 | 0.00 | 0.00 | 46 | 1020.0 |
| 20260904142548 | 64 | 180 | 0.0 | 0.0 | 0.00 | 0.00 | 0.00 | 46 | 1020.0 |
| 20260904142046 | 64 | 315 | 0.0 | 0.0 | 0.00 | 0.00 | 0.00 | 46 | 1020.0 |
| 20260904141544 | 64 | 315 | 0.0 | 0.0 | 0.00 | 0.00 | 0.00 | 46 | 1020.0 |
| 20260904141043 | 64 | 315 | 0.0 | 0.0 | 0.00 | 0.00 | 0.00 | 45 | 1020.0 |
| 20260904140538 | 64 | 315 | 0.0 | 0.0 | 0.00 | 0.00 | 0.00 | 44 | 1019.9 |
| 20260904140036 | 65 | 315 | 0.0 | 1.0 | 0.00 | 0.00 | 0.00 | 45 | 1020.1 |
| 20260904135534 | 65 | 315 | 0.0 | 0.0 | 0.00 | 0.00 | 0.00 | 45 | 1020.1 |
| 20260904135032 | 65 | 337 | 1.0 | 1.0 | 0.00 | 0.00 | 0.00 | 45 | 1020.1 |
| 20260904134529 | 65 | 315 | 0.0 | 0.0 | 0.00 | 0.00 | 0.00 | 45 | 1020.1 |
| 20260904134027 | 65 | 135 | 0.0 | 0.0 | 0.00 | 0.00 | 0.00 | 45 | 1020.0 |
| 20260904133527 | 65 | 45 | 0.0 | 1.0 | 0.00 | 0.00 | 0.00 | 44 | 1020.0 |
| 20260904133023 | 65 | 270 | 0.0 | 0.0 | 0.00 | 0.00 | 0.00 | 44 | 1020.0 |
| 20260904132521 | 65 | 90 | 0.0 | 1.0 | 0.00 | 0.00 | 0.00 | 44 | 1020.0 |
| 20260904132018 | 65 | 90 | 0.0 | 0.0 | 0.00 | 0.00 | 0.00 | 44 | 1020.0 |
| 20260904131515 | 65 | 90 | 0.0 | 0.0 | 0.00 | 0.00 | 0.00 | 43 | 1020.0 |
| 20260904131013 | 65 | 135 | 0.0 | 0.0 | 0.00 | 0.00 | 0.00 | 43 | 1019.9 |
| 20260904130511 | 65 | 135 | 0.0 | 0.0 | 0.00 | 0.00 | 0.00 | 43 | 1019.9 |
| 20260904130009 | 66 | 315 | 0.0 | 0.0 | 0.00 | 0.00 | 0.00 | 42 | 1020.0 |
| 20260904125001 | 66 | 135 | 0.0 | 0.0 | 0.00 | 0.00 | 0.00 | 42 | 1020.0 |
| 20260904124459 | 66 | 135 | 0.0 | 1.0 | 0.00 | 0.00 | 0.00 | 42 | 1019.9 |
| 20260904123957 | 66 | 315 | 0.0 | 0.0 | 0.00 | 0.00 | 0.00 | 42 | 1019.9 |
| 20260904123455 | 66 | 315 | 0.0 | 0.0 | 0.00 | 0.00 | 0.00 | 42 | 1020.0 |
| 20260904122952 | 66 | 315 | 0.0 | 0.0 | 0.00 | 0.00 | 0.00 | 42 | 1019.8 |
| 20260904122449 | 66 | 0 | 0.0 | 0.0 | 0.00 | 0.00 | 0.00 | 42 | 1019.9 |
| 20260904121947 | 66 | 270 | 0.0 | 0.0 | 0.00 | 0.00 | 0.00 | 40 | 1019.9 |
| 20260904121445 | 66 | 270 | 0.0 | 0.0 | 0.00 | 0.00 | 0.00 | 41 | 1019.9 |
| 20260904120943 | 66 | 270 | 0.0 | 0.0 | 0.00 | 0.00 | 0.00 | 40 | 1019.9 |
| 20260904120441 | 66 | 315 | 0.0 | 0.0 | 0.00 | 0.00 | 0.00 | 41 | 1019.9 |
| 20260904115939 | 66 | 315 | 0.0 | 0.0 | 0.00 | 0.00 | 0.00 | 40 | 1019.9 |
| 20260904115436 | 66 | 90 | 0.0 | 0.0 | 0.00 | 0.00 | 0.00 | 40 | 1019.9 |
| 20260904114934 | 66 | 315 | 0.0 | 0.0 | 0.00 | 0.00 | 0.00 | 40 | 1019.8 |
| 20260904114432 | 66 | 315 | 0.0 | 1.0 | 0.00 | 0.00 | 0.00 | 39 | 1019.8 |
| 20260904113929 | 67 | 337 | 1.0 | 1.0 | 0.00 | 0.00 | 0.00 | 38 | 1019.8 |
| 20260904113427 | 67 | 315 | 0.0 | 0.0 | 0.00 | 0.00 | 0.00 | 38 | 1019.7 |
| 20260904112924 | 67 | 315 | 0.0 | 0.0 | 0.00 | 0.00 | 0.00 | 38 | 1019.6 |
| 20260904112422 | 67 | 315 | 0.0 | 0.0 | 0.00 | 0.00 | 0.00 | 38 | 1019.7 |
| 20260904111920 | 67 | 315 | 0.0 | 0.0 | 0.00 | 0.00 | 0.00 | 38 | 1019.5 |
| 20260904111418 | 67 | 337 | 0.0 | 0.0 | 0.00 | 0.00 | 0.00 | 37 | 1019.5 |
| 20260904110916 | 68 | 90 | 0.0 | 0.0 | 0.00 | 0.00 | 0.00 | 37 | 1019.6 |
| 20260904110413 | 68 | 315 | 0.0 | 1.0 | 0.00 | 0.00 | 0.00 | 36 | 1019.5 |
| 20260904105911 | 69 | 315 | 0.0 | 0.0 | 0.00 | 0.00 | 0.00 | 36 | 1019.3 |
| 20260904105409 | 69 | 315 | 0.0 | 1.0 | 0.00 | 0.00 | 0.00 | 35 | 1019.3 |
| 20260904104910 | 69 | 315 | 1.0 | 1.0 | 0.00 | 0.00 | 0.00 | 35 | 1019.4 |
| 20260904104404 | 70 | 270 | 0.0 | 0.0 | 0.00 | 0.00 | 0.00 | 35 | 1019.2 |
| 20260904103901 | 70 | 270 | 0.0 | 0.0 | 0.00 | 0.00 | 0.00 | 35 | 1019.1 |
| 20260904103359 | 70 | 315 | 0.0 | 0.0 | 0.00 | 0.00 | 0.00 | 34 | 1019.3 |
| 20260904102857 | 71 | 315 | 1.0 | 1.0 | 0.00 | 0.00 | 0.00 | 34 | 1019.2 |
| 20260904102355 | 71 | 315 | 1.0 | 1.0 | 0.00 | 0.00 | 0.00 | 34 | 1019.2 |
| 20260904101853 | 71 | 315 | 0.0 | 0.0 | 0.00 | 0.00 | 0.00 | 33 | 1019.0 |
| 20260904101350 | 72 | 315 | 0.0 | 0.0 | 0.00 | 0.00 | 0.00 | 33 | 1019.1 |
| 20260904100848 | 72 | 270 | 0.0 | 0.0 | 0.00 | 0.00 | 0.00 | 33 | 1018.8 |
| 20260904100348 | 72 | 270 | 0.0 | 0.0 | 0.00 | 0.00 | 0.00 | 32 | 1018.8 |
| 20260904095845 | 73 | 270 | 0.0 | 0.0 | 0.00 | 0.00 | 0.00 | 32 | 1018.8 |
| 20260904095341 | 73 | 270 | 0.0 | 0.0 | 0.00 | 0.00 | 0.00 | 31 | 1018.7 |
| 20260904094839 | 74 | 180 | 0.0 | 0.0 | 0.00 | 0.00 | 0.00 | 31 | 1018.6 |
| 20260904094336 | 74 | 315 | 0.0 | 0.0 | 0.00 | 0.00 | 0.00 | 31 | 1018.6 |
| 20260904093332 | 75 | 270 | 0.0 | 0.0 | 0.00 | 0.00 | 0.00 | 30 | 1018.3 |
| 20260904092830 | 76 | 270 | 0.0 | 0.0 | 0.00 | 0.00 | 0.00 | 29 | 1018.3 |
| 20260904092329 | 76 | 270 | 0.0 | 0.0 | 0.00 | 0.00 | 0.00 | 29 | 1018.3 |
| 20260904091829 | 77 | 45 | 0.0 | 0.0 | 0.00 | 0.00 | 0.00 | 28 | 1018.1 |
| 20260904091325 | 77 | 45 | 0.0 | 0.0 | 0.00 | 0.00 | 0.00 | 28 | 1018.0 |
| 20260904090824 | 78 | 135 | 0.0 | 0.0 | 0.00 | 0.00 | 0.00 | 28 | 1018.0 |
| 20260904090318 | 78 | 270 | 0.0 | 0.0 | 0.00 | 0.00 | 0.00 | 27 | 1018.0 |
| 20260904085819 | 79 | 270 | 0.0 | 0.0 | 0.00 | 0.00 | 0.00 | 27 | 1017.9 |
| 20260904085315 | 79 | 270 | 0.0 | 0.0 | 0.00 | 0.00 | 0.00 | 27 | 1017.8 |
| 20260904084813 | 80 | 0 | 0.0 | 0.0 | 0.00 | 0.00 | 0.00 | 26 | 1017.8 |
| 20260904084311 | 80 | 0 | 0.0 | 0.0 | 0.00 | 0.00 | 0.00 | 26 | 1017.7 |
| 20260904083808 | 81 | 0 | 0.0 | 1.0 | 0.00 | 0.00 | 0.00 | 26 | 1017.7 |
| 20260904083306 | 81 | 315 | 0.0 | 0.0 | 0.00 | 0.00 | 0.00 | 25 | 1017.6 |
| 20260904082804 | 81 | 0 | 0.0 | 0.0 | 0.00 | 0.00 | 0.00 | 25 | 1017.6 |
| 20260904082305 | 82 | 0 | 1.0 | 2.0 | 0.00 | 0.00 | 0.00 | 25 | 1017.5 |
| 20260904081801 | 83 | 22 | 1.0 | 1.0 | 0.00 | 0.00 | 0.00 | 24 | 1017.5 |
| 20260904081300 | 83 | 45 | 1.0 | 2.0 | 0.00 | 0.00 | 0.00 | 24 | 1017.4 |
| 20260904080756 | 83 | 22 | 1.0 | 3.0 | 0.00 | 0.00 | 0.00 | 23 | 1017.4 |
| 20260904080251 | 84 | 33 | 3.0 | 3.0 | 0.00 | 0.00 | 0.00 | 23 | 1017.3 |
| 20260904075750 | 84 | 11 | 3.0 | 4.0 | 0.00 | 0.00 | 0.00 | 23 | 1017.4 |
| 20260904075248 | 85 | 45 | 1.0 | 3.0 | 0.00 | 0.00 | 0.00 | 23 | 1017.3 |
| 20260904074747 | 85 | 45 | 1.0 | 3.0 | 0.00 | 0.00 | 0.00 | 22 | 1017.3 |
| 20260904074245 | 86 | 78 | 2.0 | 3.0 | 0.00 | 0.00 | 0.00 | 22 | 1017.3 |
| 20260904073741 | 86 | 67 | 2.0 | 5.0 | 0.00 | 0.00 | 0.00 | 22 | 1017.2 |
| 20260904073239 | 87 | 22 | 4.0 | 4.0 | 0.00 | 0.00 | 0.00 | 21 | 1017.3 |
| 20260904072738 | 87 | 45 | 3.0 | 6.0 | 0.00 | 0.00 | 0.00 | 21 | 1017.3 |
| 20260904072235 | 88 | 90 | 3.0 | 6.0 | 0.00 | 0.00 | 0.00 | 21 | 1017.2 |
| 20260904071731 | 88 | 45 | 3.0 | 7.0 | 0.00 | 0.00 | 0.00 | 21 | 1017.2 |
| 20260904071231 | 88 | 90 | 3.0 | 5.0 | 0.00 | 0.00 | 0.00 | 20 | 1017.2 |
| 20260904070727 | 88 | 67 | 4.0 | 8.0 | 0.00 | 0.00 | 0.00 | 20 | 1017.2 |
| 20260904070225 | 88 | 45 | 4.0 | 9.0 | 0.00 | 0.00 | 0.00 | 19 | 1017.1 |
| 20260904065723 | 88 | 90 | 8.0 | 10.0 | 0.00 | 0.00 | 0.00 | 19 | 1017.1 |
| 20260904065221 | 88 | 90 | 4.0 | 9.0 | 0.00 | 0.00 | 0.00 | 19 | 1017.1 |
| 20260904064719 | 89 | 56 | 8.0 | 8.0 | 0.00 | 0.00 | 0.00 | 19 | 1017.1 |
| 20260904064216 | 89 | 90 | 5.0 | 10.0 | 0.00 | 0.00 | 0.00 | 19 | 1017.1 |
| 20260904063716 | 89 | 90 | 10.0 | 13.0 | 0.00 | 0.00 | 0.00 | 19 | 1017.1 |
| 20260904063212 | 89 | 90 | 7.0 | 10.0 | 0.00 | 0.00 | 0.00 | 19 | 1017.1 |
| 20260904062710 | 89 | 90 | 6.0 | 10.0 | 0.00 | 0.00 | 0.00 | 18 | 1017.0 |
| 20260904062206 | 89 | 78 | 8.0 | 13.0 | 0.00 | 0.00 | 0.00 | 19 | 1017.1 |
| 20260904061706 | 89 | 45 | 9.0 | 11.0 | 0.00 | 0.00 | 0.00 | 18 | 1017.0 |
| 20260904061203 | 90 | 90 | 6.0 | 15.0 | 0.00 | 0.00 | 0.00 | 18 | 1017.0 |
| 20260904060811 | 90 | 67 | 15.0 | 15.0 | 0.00 | 0.00 | 0.00 | 18 | 1016.9 |
| 20260904060016 | 90 | 90 | 7.0 | 10.0 | 0.00 | 0.00 | 0.00 | 18 | 1016.9 |
| 20260904055012 | 90 | 45 | 7.0 | 13.0 | 0.00 | 0.00 | 0.00 | 18 | 1016.9 |
| 20260904054508 | 90 | 90 | 13.0 | 28.0 | 0.00 | 0.00 | 0.00 | 19 | 1016.9 |
| 20260904054406 | 90 | 67 | 28.0 | 28.0 | 0.00 | 0.00 | 0.00 | 19 | 1016.9 |
| 20260904054305 | 90 | 90 | 15.0 | 15.0 | 0.00 | 0.00 | 0.00 | 19 | 1016.9 |
| 20260904054043 | 90 | 67 | 7.0 | 13.0 | 0.00 | 0.00 | 0.00 | 19 | 1016.8 |
| 20260904053540 | 90 | 90 | 9.0 | 16.0 | 0.00 | 0.00 | 0.00 | 20 | 1017.0 |
| 20260904053039 | 90 | 67 | 11.0 | 14.0 | 0.00 | 0.00 | 0.00 | 19 | 1016.9 |
| 20260904052535 | 90 | 45 | 11.0 | 12.0 | 0.00 | 0.00 | 0.00 | 20 | 1016.9 |
| 20260904052033 | 90 | 90 | 5.0 | 6.0 | 0.00 | 0.00 | 0.00 | 21 | 1016.9 |
| 20260904051532 | 90 | 45 | 5.0 | 11.0 | 0.00 | 0.00 | 0.00 | 20 | 1017.2 |
| 20260904051031 | 90 | 90 | 7.0 | 13.0 | 0.00 | 0.00 | 0.00 | 20 | 1017.1 |
| 20260904050527 | 90 | 90 | 11.0 | 11.0 | 0.00 | 0.00 | 0.00 | 21 | 1017.2 |
| 20260904050035 | 90 | 67 | 3.0 | 9.0 | 0.00 | 0.00 | 0.00 | 21 | 1017.2 |
| 20260904045532 | 90 | 67 | 9.0 | 12.0 | 0.00 | 0.00 | 0.00 | 21 | 1017.3 |
| 20260904045030 | 90 | 90 | 6.0 | 11.0 | 0.00 | 0.00 | 0.00 | 20 | 1017.2 |
| 20260904044527 | 90 | 135 | 10.0 | 12.0 | 0.00 | 0.00 | 0.00 | 20 | 1017.3 |
| 20260904044025 | 90 | 135 | 7.0 | 9.0 | 0.00 | 0.00 | 0.00 | 21 | 1017.3 |
| 20260904043522 | 90 | 135 | 2.0 | 10.0 | 0.00 | 0.00 | 0.00 | 21 | 1017.5 |
| 20260904043022 | 90 | 90 | 9.0 | 11.0 | 0.00 | 0.00 | 0.00 | 21 | 1017.6 |
| 20260904042520 | 90 | 135 | 6.0 | 8.0 | 0.00 | 0.00 | 0.00 | 22 | 1017.7 |
| 20260904042017 | 90 | 112 | 6.0 | 10.0 | 0.00 | 0.00 | 0.00 | 21 | 1017.8 |
| 20260904041514 | 90 | 45 | 10.0 | 10.0 | 0.00 | 0.00 | 0.00 | 21 | 1017.8 |
| 20260904041012 | 90 | 0 | 6.0 | 16.0 | 0.00 | 0.00 | 0.00 | 21 | 1017.9 |
| 20260904040910 | 90 | 135 | 15.0 | 15.0 | 0.00 | 0.00 | 0.00 | 22 | 1017.6 |
| 20260904040748 | 90 | 90 | 6.0 | 10.0 | 0.00 | 0.00 | 0.00 | 21 | 1017.8 |
| 20260904040244 | 89 | 90 | 2.0 | 2.0 | 0.00 | 0.00 | 0.00 | 23 | 1018.0 |
| 20260904035241 | 89 | 90 | 6.0 | 9.0 | 0.00 | 0.00 | 0.00 | 22 | 1018.2 |
| 20260904034739 | 90 | 112 | 4.0 | 10.0 | 0.00 | 0.00 | 0.00 | 22 | 1018.3 |
| 20260904034237 | 90 | 157 | 5.0 | 6.0 | 0.00 | 0.00 | 0.00 | 23 | 1018.4 |
| 20260904033735 | 89 | 22 | 2.0 | 4.0 | 0.00 | 0.00 | 0.00 | 23 | 1018.5 |
| 20260904033230 | 89 | 67 | 6.0 | 7.0 | 0.00 | 0.00 | 0.00 | 23 | 1018.6 |
| 20260904032729 | 89 | 22 | 3.0 | 8.0 | 0.00 | 0.00 | 0.00 | 23 | 1018.6 |
| 20260904032226 | 89 | 67 | 4.0 | 5.0 | 0.00 | 0.00 | 0.00 | 24 | 1018.8 |
| 20260904031723 | 88 | 67 | 4.0 | 8.0 | 0.00 | 0.00 | 0.00 | 23 | 1018.8 |
| 20260904031223 | 88 | 180 | 7.0 | 9.0 | 0.00 | 0.00 | 0.00 | 24 | 1019.0 |
| 20260904030720 | 88 | 45 | 3.0 | 8.0 | 0.00 | 0.00 | 0.00 | 24 | 1019.0 |
| 20260904030218 | 88 | 157 | 1.0 | 7.0 | 0.00 | 0.00 | 0.00 | 24 | 1019.2 |
| 20260904025716 | 88 | 45 | 3.0 | 7.0 | 0.00 | 0.00 | 0.00 | 24 | 1019.2 |
| 20260904025214 | 88 | 45 | 9.0 | 9.0 | 0.00 | 0.00 | 0.00 | 23 | 1019.4 |
| 20260904025042 | 88 | 90 | 1.0 | 6.0 | 0.00 | 0.00 | 0.00 | 25 | 1019.5 |
| 20260904024537 | 88 | 168 | 4.0 | 7.0 | 0.00 | 0.00 | 0.00 | 25 | 1019.5 |
| 20260904024036 | 88 | 270 | 3.0 | 6.0 | 0.00 | 0.00 | 0.00 | 25 | 1019.7 |
| 20260904023534 | 87 | 180 | 6.0 | 11.0 | 0.00 | 0.00 | 0.00 | 25 | 1019.7 |
| 20260904023032 | 87 | 168 | 4.0 | 8.0 | 0.00 | 0.00 | 0.00 | 25 | 1019.7 |
| 20260904022529 | 87 | 90 | 8.0 | 8.0 | 0.00 | 0.00 | 0.00 | 25 | 1019.9 |
| 20260904022028 | 87 | 180 | 3.0 | 5.0 | 0.00 | 0.00 | 0.00 | 26 | 1020.1 |
| 20260904021524 | 87 | 337 | 0.0 | 2.0 | 0.00 | 0.00 | 0.00 | 27 | 1020.3 |
| 20260904021022 | 87 | 180 | 0.0 | 5.0 | 0.00 | 0.00 | 0.00 | 27 | 1020.4 |
| 20260904020521 | 87 | 202 | 3.0 | 5.0 | 0.00 | 0.00 | 0.00 | 26 | 1020.4 |
| 20260904020019 | 86 | 157 | 9.0 | 9.0 | 0.00 | 0.00 | 0.00 | 25 | 1020.4 |
| 20260904015516 | 86 | 135 | 2.0 | 5.0 | 0.00 | 0.00 | 0.00 | 27 | 1020.7 |
| 20260904015012 | 86 | 112 | 4.0 | 6.0 | 0.00 | 0.00 | 0.00 | 26 | 1020.8 |
| 20260904014511 | 86 | 45 | 3.0 | 7.0 | 0.00 | 0.00 | 0.00 | 26 | 1020.9 |
| 20260904014008 | 86 | 157 | 5.0 | 9.0 | 0.00 | 0.00 | 0.00 | 26 | 1021.1 |
| 20260904013506 | 85 | 157 | 2.0 | 4.0 | 0.00 | 0.00 | 0.00 | 28 | 1021.2 |
| 20260904013005 | 85 | 90 | 3.0 | 3.0 | 0.00 | 0.00 | 0.00 | 29 | 1021.3 |
| 20260904012502 | 85 | 225 | 4.0 | 4.0 | 0.00 | 0.00 | 0.00 | 29 | 1021.4 |
| 20260904011959 | 84 | 225 | 0.0 | 5.0 | 0.00 | 0.00 | 0.00 | 29 | 1021.5 |
| 20260904011458 | 84 | 270 | 1.0 | 6.0 | 0.00 | 0.00 | 0.00 | 29 | 1021.6 |
| 20260904010955 | 83 | 247 | 4.0 | 5.0 | 0.00 | 0.00 | 0.00 | 30 | 1021.6 |
| 20260904010453 | 83 | 270 | 3.0 | 6.0 | 0.00 | 0.00 | 0.00 | 30 | 1021.8 |
| 20260904005951 | 83 | 281 | 2.0 | 5.0 | 0.00 | 0.00 | 0.00 | 30 | 1021.9 |
| 20260904005447 | 83 | 270 | 4.0 | 6.0 | 0.00 | 0.00 | 0.00 | 30 | 1022.0 |
| 20260904004945 | 82 | 270 | 2.0 | 4.0 | 0.00 | 0.00 | 0.00 | 30 | 1022.0 |
| 20260904004444 | 82 | 225 | 5.0 | 5.0 | 0.00 | 0.00 | 0.00 | 30 | 1022.0 |
| 20260904003941 | 82 | 0 | 1.0 | 7.0 | 0.00 | 0.00 | 0.00 | 30 | 1022.1 |
| 20260904003439 | 82 | 315 | 5.0 | 7.0 | 0.00 | 0.00 | 0.00 | 30 | 1022.2 |
| 20260904002936 | 81 | 303 | 3.0 | 4.0 | 0.00 | 0.00 | 0.00 | 31 | 1022.3 |
| 20260904002434 | 81 | 225 | 0.0 | 6.0 | 0.00 | 0.00 | 0.00 | 32 | 1022.3 |
| 20260904001932 | 81 | 292 | 4.0 | 9.0 | 0.00 | 0.00 | 0.00 | 32 | 1022.4 |
| 20260904001429 | 80 | 22 | 5.0 | 7.0 | 0.00 | 0.00 | 0.00 | 30 | 1022.3 |
| 20260904000928 | 80 | 337 | 3.0 | 7.0 | 0.00 | 0.00 | 0.00 | 32 | 1022.4 |
| 20260904000425 | 80 | 0 | 3.0 | 7.0 | 0.00 | 0.00 | 0.00 | 32 | 1022.4 |
| 20260903235922 | 79 | 22 | 1.0 | 7.0 | 0.00 | 0.00 | 0.00 | 32 | 1022.4 |
| 20260903235421 | 79 | 11 | 2.0 | 8.0 | 0.00 | 0.00 | 0.00 | 32 | 1022.4 |
| 20260903234918 | 79 | 337 | 1.0 | 5.0 | 0.00 | 0.00 | 0.00 | 35 | 1022.5 |
| 20260903234417 | 79 | 247 | 3.0 | 5.0 | 0.00 | 0.00 | 0.00 | 35 | 1022.5 |
| 20260903233915 | 78 | 270 | 1.0 | 3.0 | 0.00 | 0.00 | 0.00 | 37 | 1022.7 |
| 20260903233411 | 78 | 247 | 3.0 | 4.0 | 0.00 | 0.00 | 0.00 | 37 | 1022.7 |
| 20260903232909 | 78 | 303 | 2.0 | 4.0 | 0.00 | 0.00 | 0.00 | 37 | 1022.8 |
| 20260903232406 | 78 | 0 | 3.0 | 3.0 | 0.00 | 0.00 | 0.00 | 37 | 1022.7 |
| 20260903231903 | 77 | 270 | 2.0 | 4.0 | 0.00 | 0.00 | 0.00 | 38 | 1022.8 |
| 20260903231400 | 77 | 225 | 1.0 | 4.0 | 0.00 | 0.00 | 0.00 | 39 | 1023.0 |
| 20260903230859 | 76 | 270 | 5.0 | 5.0 | 0.00 | 0.00 | 0.00 | 41 | 1023.0 |
| 20260903225855 | 75 | 0 | 2.0 | 3.0 | 0.00 | 0.00 | 0.00 | 38 | 1022.9 |
| 20260903225353 | 74 | 135 | 1.0 | 2.0 | 0.00 | 0.00 | 0.00 | 42 | 1023.0 |
| 20260903224849 | 73 | 270 | 0.0 | 2.0 | 0.00 | 0.00 | 0.00 | 44 | 1023.0 |
| 20260903224347 | 72 | 180 | 2.0 | 3.0 | 0.00 | 0.00 | 0.00 | 45 | 1023.0 |
| 20260903223844 | 72 | 146 | 0.0 | 3.0 | 0.00 | 0.00 | 0.00 | 47 | 1023.2 |
| 20260903223341 | 71 | 0 | 0.0 | 2.0 | 0.00 | 0.00 | 0.00 | 47 | 1023.1 |
| 20260903222839 | 70 | 22 | 1.0 | 2.0 | 0.00 | 0.00 | 0.00 | 48 | 1023.0 |
| 20260903222339 | 69 | 45 | 1.0 | 3.0 | 0.00 | 0.00 | 0.00 | 49 | 1022.9 |
| 20260903221838 | 68 | 135 | 0.0 | 2.0 | 0.00 | 0.00 | 0.00 | 50 | 1022.9 |
| 20260903221333 | 67 | 0 | 1.0 | 2.0 | 0.00 | 0.00 | 0.00 | 51 | 1022.9 |
| 20260903220832 | 67 | 135 | 1.0 | 3.0 | 0.00 | 0.00 | 0.00 | 54 | 1023.0 |
| 20260903220328 | 65 | 135 | 1.0 | 3.0 | 0.00 | 0.00 | 0.00 | 55 | 1023.0 |
| 20260903215826 | 65 | 45 | 1.0 | 2.0 | 0.00 | 0.00 | 0.00 | 57 | 1023.0 |
| 20260903215324 | 63 | 45 | 1.0 | 1.0 | 0.00 | 0.00 | 0.00 | 57 | 1023.0 |
| 20260903214821 | 62 | 90 | 1.0 | 2.0 | 0.00 | 0.00 | 0.00 | 58 | 1022.9 |
| 20260903214319 | 62 | 135 | 1.0 | 3.0 | 0.00 | 0.00 | 0.00 | 59 | 1022.9 |
| 20260903213816 | 60 | 90 | 2.0 | 2.0 | 0.00 | 0.00 | 0.00 | 60 | 1022.7 |
| 20260903213314 | 60 | 135 | 2.0 | 2.0 | 0.00 | 0.00 | 0.00 | 62 | 1022.9 |
| 20260903212812 | 59 | 101 | 1.0 | 2.0 | 0.00 | 0.00 | 0.00 | 62 | 1022.8 |
| 20260903212310 | 58 | 45 | 1.0 | 1.0 | 0.00 | 0.00 | 0.00 | 63 | 1022.7 |
| 20260903211808 | 57 | 135 | 0.0 | 0.0 | 0.00 | 0.00 | 0.00 | 65 | 1022.7 |
| 20260903211305 | 56 | 135 | 0.0 | 1.0 | 0.00 | 0.00 | 0.00 | 66 | 1022.6 |
| 20260903210803 | 55 | 0 | 1.0 | 1.0 | 0.00 | 0.00 | 0.00 | 67 | 1022.6 |
| 20260903210301 | 54 | 315 | 1.0 | 1.0 | 0.00 | 0.00 | 0.00 | 68 | 1022.5 |
| 20260903205758 | 54 | 0 | 1.0 | 1.0 | 0.00 | 0.00 | 0.00 | 68 | 1022.6 |
| 20260903205256 | 53 | 315 | 0.0 | 0.0 | 0.00 | 0.00 | 0.00 | 66 | 1022.3 |
| 20260903204753 | 53 | 315 | 0.0 | 0.0 | 0.00 | 0.00 | 0.00 | 66 | 1022.2 |
| 20260903204251 | 52 | 270 | 0.0 | 0.0 | 0.00 | 0.00 | 0.00 | 65 | 1022.2 |